Regional Weather Roundup
Issued by NWS Northern Indiana

Home | Current Version | Previous Version | Graphics & Text | Print | Product List | Glossary On
Versions: 1 2 3 4 5 6 7 8 9 10 11 12 13 14 15 16 17 18 19 20 21 22 23 24 25 26 27 28 29 30 31 32 33 34 35 36 37 38 39 40 41 42 43 44 45 46 47 48 49 50
129
ASUS43 KIWX 251500
RWRIWX

KIWX WEATHER ROUNDUP
NATIONAL WEATHER SERVICE NORTHERN INDIANA
1100 AM EDT SUN SEP 25 2016

NOTE: "FAIR" INDICATES FEW OR NO CLOUDS BELOW 12,000 FEET WITH NO
SIGNIFICANT WEATHER AND/OR OBSTRUCTIONS TO VISIBILITY.

* THESE STATIONS ARE NOT UNDER NWS QUALITY CONTROL. THEY ALSO MAY NOT
  REPORT WEATHER SUCH AS PRECIPITATION OR FOG.

INZ001>027-251600-
NORTHERN INDIANA

CITY           SKY/WX    TMP DP  RH WIND       PRES   REMARKS
GARY*          MOSUNNY   70  59  68 SE7       30.09F
SOUTH BEND     MOSUNNY   66  53  63 SE10      30.14F
ELKHART*       SUNNY    N/A N/A N/A E7        30.14F
GOSHEN         SUNNY     68  50  52 SE8       30.15F
ANGOLA*          N/A     66  45  45 SE7       30.17F
FORT WAYNE     MOSUNNY   68  55  63 E5        30.17S

$$
INZ028>050-251600-
CENTRAL INDIANA

CITY           SKY/WX    TMP DP  RH WIND       PRES   REMARKS
LAFAYETTE      SUNNY     71  64  78 E5        30.11S
MUNCIE*        SUNNY     73  58  59 S6        30.15S
INDIANAPOLIS   SUNNY     72  63  73 SE6       30.13S

$$
MIZ043>046-050>051-056>058-064>065-071>073-077>080-251600-
SOUTHWEST LOWER MICHIGAN

CITY           SKY/WX    TMP DP  RH WIND       PRES   REMARKS
BATTLE CREEK   CLOUDY    64  52  64 SE10      30.18S
BENTON HARBOR  MOSUNNY   67  53  61 SE13      30.11F
COLDWATER*     PTSUNNY   65  44  47 SE9       30.17F
HILLSDALE*     SUNNY     64  39  39 SE9       30.18S
HOLLAND        CLOUDY    63  55  75 SE13      30.14F
GRAND RAPIDS   CLOUDY    62  52  69 SE6       30.16F
KALAMAZOO      CLOUDY    63  51  65 S8        30.17F
STURGIS*       PTSUNNY   67  42  40 SE12      30.16S
THREE RIVERS*  CLOUDY    66  52  62 SE6       30.17S

$$
OHZ001>008-015>018-024>025-251600-
NORTHWEST OHIO

CITY           SKY/WX    TMP DP  RH WIND       PRES   REMARKS
DEFIANCE       SUNNY     66  53  63 E5        30.18S
FINDLAY        SUNNY     66  51  58 CALM      30.18R
TOLEDO EXPRESS SUNNY     64  50  60 VRB7      30.19S
TOLEDO METCALF SUNNY     65  51  60 SE8       30.20S
LIMA           SUNNY     70  55  59 CALM      30.17S

$$
AND FOR LAKE MICHIGAN COASTAL AND OPEN LAKE BUOY OBSERVATIONS

STATION/POSITION TEMP    WIND        PRES    VSBY  WAVE
                 AIR SEA DIR/SP/G                  HT/PER
                 (F)     (DEG/KT/KT) (MB)    (MI)  (FT/S)
CALUMET HARBOR    68     170/  6/ 11 1018.2F
MICHIGAN CITY     65     120/ 14/ 17   N/A
BURNS HARBOR      68     150/ 11/ 17 1019.0F
SAINT JOSEPH      63     190/  2/  7 1020.3
SOUTH LAKE BUOY   67 72  140/ 17/ 21 1018.9          4/ 5
4 MI NW BRIDGMAN  65 68  120/ 12/ 16 1019.5F         1/ 2
MICHIGAN CITY     66 68  150/ 10/ 12   N/A           1/ 2

$$
&&




USA.gov is the U.S. government's official web portal to all federal, state and local government web resources and services.